Location: Home
(42.5358°N, 72.7383°W)
Time: 09:20:31
(UTC-04:00)

A-11 Canister half - Pass Details

Date: 04 July 2022
Orbit: 1514 x 1685 km, 47.2° (Epoch: 15 August)

Event Time Altitude Azimuth Distance (km) Brightness Sun altitude
Rises 04:31:47 0° 296° (WNW) 4,905 11.4 -7.8°
Reaches altitude 10° 04:35:03 10° 292° (WNW) 3,897 10.9 -7.3°
Maximum altitude 04:44:35 54° 220° (SW) 1,899 9.2 -6.0°
Drops below altitude 10° 04:53:45 10° 146° (SE) 3,754 11.0 -4.6°
Sets 04:56:52 0° 142° (SE) 4,714 11.6 -4.2°
